Cloud_Cover
15 0 2 5 3 56 5 5 5 2 5 2 48 0 20 5 5 41 39 44 61 85 97 91 0 5 41 5 5 5 5 5 5 8 50 32 5 1 0 0 0 0 0
5 5 5 2 0 2 5 5 3 0 5 21 5 5 5 5 6 5 17 88 92 100 100 100 11 9 24 5 5 5 5 5 5 5 5 3 15 19 6 0 0 0 0
5 5 5 5 1 5 1 5 5 3 5 5 9 5 87 24 5 5 2 1 100 100 100 90 14 5 5 6 5 5 5 5 5 22 62 5 4 5 0 4 8 20 8
38 28 7 5 3 2 5 5 64 23 5 5 11 5 5 6 5 5 5 5 100 100 100 16 5 9 56 7 5 5 5 3 17 38 32 0 0 0 31 72 92 56 2
5 5 5 3 2 0 0 2 5 4 5 5 5 11 7 15 5 5 5 3 99 100 42 10 81 60 5 5 4 5 5 5 77 14 3 0 0 0 0 0 7 31 54
5 5 5 0 0 0 0 0 3 5 5 5 5 0 6 50 0 0 0 0 0 6 17 11 5 6 5 1 1 5 5 5 6 6 5 0 0 0 0 0 0 0 25
5 5 5 3 5 0 5 0 0 5 2 0 0 0 64 14 4 0 0 0 0 0 5 5 5 1 0 0 2 5 5 5 5 3 0 0 0 0 0 0 0 0 0
7 5 7 5 5 2 5 0 0 0 0 0 0 0 42 5 0 0 0 0 0 0 5 0 0 0 0 0 0 3 5 5 5 0 1 0 0 0 0 0 0 0 0
58 50 5 5 5 5 5 5 0 0 0 0 0 0 35 0 0 0 0 0 0 0 0 0 0 0 0 0 0 5 5 5 5 5 2 0 0 0 0 0 0 0 0
100 76 65 37 12 5 5 5 5 5 4 0 0 0 0 0 0 0 0 0 0 0 0 0 0 0 0 0 0 0 0 5 0 0 0 0 0 0 0 0 0 0 0
80 100 89 70 38 7 30 8 5 5 47 0 0 0 0 0 0 0 0 0 0 0 0 0 0 0 0 0 0 0 1 0 0 0 0 0 0 0 0 0 0 1 3
100 95 72 76 92 95 8 20 5 5 4 1 0 0 0 7 0 0 0 0 0 0 0 0 0 0 0 0 0 0 0 0 0 3 1 0 0 0 0 1 4 5 0
100 98 100 99 100 100 78 67 8 5 5 4 5 0 0 3 0 0 0 0 0 0 0 0 0 0 0 0 0 0 0 5 5 5 5 0 0 1 5 10 6 5 4
99 97 100 100 100 100 94 23 56 5 5 5 0 0 0 0 0 0 0 0 0 0 0 0 0 0 0 0 0 0 0 0 5 5 3 0 0 5 5 5 5 13 6
59 84 99 100 100 100 100 60 100 5 5 5 0 0 4 3 3 7 3 1 0 0 2 2 4 4 1 0 4 5 3 2 5 5 5 5 5 6 5 5 5 5 8
100 100 100 100 100 100 100 77 100 97 58 28 4 5 5 5 34 17 6 7 14 20 5 5 24 6 5 5 5 5 5 5 5 5 5 35 49 5 5 3 5 5 5
100 98 100 100 91 88 100 100 78 91 100 37 28 7 16 97 56 15 33 55 61 32 61 58 22 5 5 5 13 20 14 5 5 32 99 98 39 5 5 5 5 5 5
100 100 59 100 100 100 100 100 100 100 99 76 24 32 81 88 67 38 54 84 78 15 21 15 33 10 35 60 60 60 45 100 100 100 34 52 22 100 90 5 6 6 41
100 100 88 100 100 100 100 100 100 100 96 90 100 100 100 100 100 97 84 72 80 25 5 6 11 18 47 88 100 100 100 100 100 91 93 36 92 67 98 97 100 96 44
100 100 100 100 100 93 100 100 100 100 100 100 100 100 100 100 100 100 88 52 49 42 50 84 77 78 100 100 100 100 100 100 97 59 99 78 65 44 100 100 99 79 10
100 100 100 100 100 100 100 100 100 100 100 100 100 100 100 100 100 100 100 100 100 100 100 100 100 100 100 100 100 100 100 80 22 83 100 100 46 36 58 25 56 89 30
100 100 100 100 100 100 100 100 100 100 100 100 100 100 100 52 88 97 96 99 98 100 100 100 100 100 100 100 100 100 100 100 97 100 100 100 100 98 100 100 100 83 5
100 100 100 100 100 100 100 100 96 100 100 100 100 100 100 100 100 100 100 100 100 100 100 100 100 100 100 100 100 100 95 100 100 100 100 100 100 100 100 100 100 23 10
100 100 100 100 100 100 100 100 100 100 100 100 100 100 100 100 100 100 100 100 100 100 100 100 100 100 100 100 100 100 98 100 100 100 100 100 100 100 89 100 100 100 5
100 100 100 100 100 100 100 100 100 100 100 100 100 100 100 100 100 100 100 100 100 100 100 100 100 100 100 100 100 100 100 100 100 100 100 100 100 100 100 100 49 100 88
100 100 100 100 100 100 100 100 100 100 100 100 100 100 100 100 100 100 100 100 100 100 100 100 100 100 100 100 100 100 100 100 100 100 100 100 100 100 100 100 100 100 100